Portada
METAR-TAF:

METAR-TAF

Aeroports :

De Queen, Arkansas, Estats Units d'Amèrica

latitud: 34-02-49N, longitud: 094-23-58W, altitud: 108 m

Observació

L'informe es va fer fa 1 hora i 2 minuts, a les 17:53 UTC
Vent 6 kt amb direcció variable
Temperatura 29°C
Humitat 62%
Pressió 1018 hPa
Visibilitat: 16.1 km
Cel clar

METAR: KDEQ 211753Z AUTO VRB06KT 10SM CLR 29/21 A3007 RMK AO1 SLP179 T02890206 10289 20161 58012

Hora: 13:55 (18:55 UTC)


TAF: manca

Observacions i pronòstics meteorològics de més de 4000 aeroports (METAR i TAF).

Les estacions disponibles són els punts grocs i vermells al mapa.

Posi el ratolí al punt desitjat per veure el nom de l'estació.

Feu clic per veure les observacions i els pronòstics meteorològics.

Per canviar el mapa: feu clic els botons verds amb una creu de color negre per apropar; al botó verd amb un guió per allunyar la imatge; o en les fletxes verdes per a mapes adjacents.


METAR-TAF: